CW8198 Weather Reports


Display with metric or nautical units.
time (UTC)temp
F
wind
direction
speed
MPH
gust
MPH
rain 1hr
in
rain 24hr
in
rain mn
in
humidity
%
barometer
mb
20260507103411 45 214 3.0 8.0 0.00 0.00 0.00 78 1012.2
20260507102911 46 241 2.0 9.0 0.00 0.00 0.00 77 1012.2
20260507102410 46 250 5.0 9.0 0.00 0.00 0.00 77 1012.2
20260507101910 46 223 2.0 7.0 0.00 0.00 0.00 77 1012.2
20260507100909 46 250 3.0 7.0 0.00 0.00 0.00 77 1012.2
20260507100409 46 254 3.0 6.0 0.00 0.00 0.00 77 1012.2
20260507095909 46 219 3.0 6.0 0.00 0.00 0.00 76 1012.3
20260507095408 46 196 4.0 7.0 0.00 0.00 0.00 76 1012.3
20260507094908 46 232 4.0 7.0 0.00 0.00 0.00 76 1012.3
20260507094407 46 225 4.0 7.0 0.00 0.00 0.00 75 1012.4
20260507093406 46 219 3.0 7.0 0.00 0.00 0.00 75 1012.4
20260507092906 46 229 4.0 7.0 0.00 0.00 0.00 76 1012.5
20260507091905 45 201 3.0 7.0 0.00 0.00 0.00 76 1012.5
20260507091405 45 265 3.0 7.0 0.00 0.00 0.00 76 1012.6
20260507090905 45 265 3.0 7.0 0.00 0.00 0.00 77 1012.6
20260507090404 44 201 2.0 7.0 0.00 0.00 0.00 77 1012.6
20260507085904 44 219 3.0 5.0 0.00 0.00 0.00 77 1012.7
20260507085403 43 214 2.0 5.0 0.00 0.00 0.00 77 1012.8
20260507084904 43 210 2.0 4.0 0.00 0.00 0.00 77 1012.9
20260507084404 42 234 1.0 4.0 0.00 0.00 0.00 75 1013.0
20260507083902 42 178 1.0 2.0 0.00 0.00 0.00 75 1013.0
20260507083402 42 221 0.0 2.0 0.00 0.00 0.00 74 1013.1
20260507082856 42 137 0.0 2.0 0.00 0.00 0.00 74 1013.3
20260507082357 42 161 1.0 2.0 0.00 0.00 0.00 74 1013.3
20260507081855 42 178 0.0 2.0 0.00 0.00 0.00 73 1013.4
20260507080855 42 196 1.0 2.0 0.00 0.00 0.00 73 1013.5
20260507080355 42 146 1.0 2.0 0.00 0.00 0.00 73 1013.6
20260507075356 42 119 0.0 1.0 0.00 0.00 0.00 72 1013.8
20260507074354 42 178 0.0 3.0 0.00 0.00 0.00 73 1013.8
20260507073854 42 119 0.0 2.0 0.00 0.00 0.00 72 1013.8
20260507072353 42 178 0.0 1.0 0.00 0.00 0.00 72 1013.9
20260507071847 42 126 0.0 1.0 0.00 0.00 0.00 72 1014.0
20260507071347 42 298 0.0 2.0 0.00 0.00 0.00 73 1014.2
20260507070846 42 119 1.0 2.0 0.00 0.00 0.00 73 1014.2
20260507070347 42 162 1.0 3.0 0.00 0.00 0.00 74 1014.1
20260507065846 42 129 1.0 4.0 0.00 0.00 0.00 75 1014.2
20260507065345 41 83 2.0 4.0 0.00 0.00 0.00 75 1014.3
20260507064841 41 137 2.0 3.0 0.00 0.00 0.00 74 1014.5
20260507064341 41 124 2.0 3.0 0.00 0.00 0.00 74 1014.5
20260507063339 41 119 1.0 3.0 0.00 0.00 0.00 74 1014.5
20260507062338 41 111 1.0 3.0 0.00 0.00 0.00 76 1014.6
20260507061838 41 117 1.0 3.0 0.00 0.00 0.00 76 1014.6
20260507061338 40 121 2.0 3.0 0.00 0.00 0.00 76 1014.7
20260507060837 40 115 2.0 3.0 0.00 0.00 0.00 77 1014.8
20260507060337 40 111 1.0 3.0 0.00 0.00 0.00 76 1014.8
20260507055837 40 238 0.0 3.0 0.00 0.00 0.00 76 1014.8
20260507055337 40 124 1.0 3.0 0.00 0.00 0.00 76 1014.8
20260507054839 40 83 2.0 3.0 0.00 0.00 0.00 77 1014.8
20260507054337 40 111 1.0 3.0 0.00 0.00 0.00 77 1014.9
20260507053336 40 238 0.0 2.0 0.00 0.00 0.00 77 1014.9
20260507052837 40 153 1.0 3.0 0.00 0.00 0.00 78 1014.9
20260507051836 39 153 1.0 2.0 0.00 0.00 0.00 78 1014.9
20260507051337 39 80 1.0 2.0 0.00 0.00 0.00 77 1015.1
20260507050837 39 212 1.0 2.0 0.00 0.00 0.00 76 1015.1
20260507050337 39 232 0.0 1.0 0.00 0.00 0.00 76 1014.9
20260507045834 39 137 0.0 1.0 0.00 0.00 0.00 75 1014.8
20260507045335 40 137 0.0 1.0 0.00 0.00 0.00 75 1014.9
20260507044836 40 93 0.0 0.0 0.00 0.00 0.00 74 1015.0
20260507043834 40 93 0.0 2.0 0.00 0.00 0.00 73 1015.1
20260507043334 40 221 0.0 2.0 0.00 0.00 0.00 73 1015.1
20260507042834 40 162 1.0 2.0 0.00 0.00 0.00 72 1015.2
20260507042335 40 93 0.0 2.0 0.00 0.00 0.00 71 1015.3
20260507041833 41 34 1.0 4.0 0.00 0.00 0.00 71 1015.3
20260507041333 41 76 2.0 4.0 0.00 0.00 0.00 70 1015.4
20260507040333 42 265 0.0 1.0 0.00 0.00 0.00 70 1015.3
20260507035834 42 178 0.0 1.0 0.00 0.00 0.00 69 1015.4
20260507035333 42 137 1.0 1.0 0.00 0.00 0.00 69 1015.4
20260507034832 42 178 1.0 1.0 0.00 0.00 0.00 69 1015.4
20260507034334 43 309 0.0 2.0 0.00 0.00 0.00 68 1015.4
20260507033832 43 309 0.0 2.0 0.00 0.00 0.00 66 1015.4
20260507033332 43 51 0.0 1.0 0.00 0.00 0.00 65 1015.5
20260507032832 43 119 0.0 1.0 0.00 0.00 0.00 64 1015.6
20260507032332 43 51 0.0 1.0 0.00 0.00 0.00 62 1015.6
20260507031832 43 309 0.0 1.0 0.00 0.00 0.00 61 1015.7
20260507031330 44 309 1.0 1.0 0.00 0.00 0.00 60 1015.6
20260507030830 44 9 1.0 1.0 0.00 0.00 0.00 59 1015.6
20260507025829 45 9 0.0 1.0 0.00 0.00 0.00 58 1015.6
20260507025329 45 205 0.0 1.0 0.00 0.00 0.00 58 1015.6
20260507024829 46 178 0.0 1.0 0.00 0.00 0.00 57 1015.5
20260507024329 46 309 0.0 1.0 0.00 0.00 0.00 54 1015.6
20260507023829 46 291 0.0 1.0 0.00 0.00 0.00 54 1015.6
20260507023328 47 137 1.0 1.0 0.00 0.00 0.00 53 1015.6
20260507022828 47 111 0.0 2.0 0.00 0.00 0.00 52 1015.5
20260507022328 47 93 1.0 2.0 0.00 0.00 0.00 51 1015.4
20260507021827 47 119 1.0 2.0 0.00 0.00 0.00 49 1015.4
20260507021327 48 137 0.0 1.0 0.00 0.00 0.00 50 1015.3
20260507020827 49 162 0.0 1.0 0.00 0.00 0.00 49 1015.4
20260507020327 50 137 0.0 1.0 0.00 0.00 0.00 47 1015.3
20260507015827 51 51 0.0 1.0 0.00 0.00 0.00 46 1015.2
20260507015328 51 146 0.0 2.0 0.00 0.00 0.00 45 1015.3
20260507014828 52 178 0.0 2.0 0.00 0.00 0.00 43 1015.3
20260507014326 52 119 0.0 2.0 0.00 0.00 0.00 40 1015.2
20260507013826 53 119 1.0 2.0 0.00 0.00 0.00 40 1015.2
20260507013326 54 205 0.0 1.0 0.00 0.00 0.00 38 1015.2
20260507012825 54 34 0.0 1.0 0.00 0.00 0.00 37 1015.2
20260507012326 55 51 0.0 1.0 0.00 0.00 0.00 36 1015.3
20260507011827 55 178 0.0 2.0 0.00 0.00 0.00 36 1015.2
20260507011322 55 9 0.0 3.0 0.00 0.00 0.00 34 1015.2
20260507010811 55 330 1.0 3.0 0.00 0.00 0.00 33 1015.2
20260507005309 57 340 2.0 4.0 0.00 0.00 0.00 35 1015.2
20260507004808 57 17 2.0 5.0 0.00 0.00 0.00 32 1015.1
20260507004309 57 31 2.0 5.0 0.00 0.00 0.00 34 1015.2
20260507003809 58 103 1.0 4.0 0.00 0.00 0.00 33 1015.3
20260507003308 58 32 1.0 4.0 0.00 0.00 0.00 34 1015.4
20260507002808 58 334 2.0 3.0 0.00 0.00 0.00 33 1015.2
20260507002308 59 298 1.0 3.0 0.00 0.00 0.00 35 1015.4
20260507001808 59 334 1.0 4.0 0.00 0.00 0.00 33 1015.5
20260507000807 60 291 3.0 9.0 0.00 0.00 0.00 30 1015.6
20260507000307 61 342 5.0 9.0 0.00 0.00 0.00 31 1015.5
20260506235806 61 273 2.0 7.0 0.00 0.00 0.00 32 1015.6
20260506235306 62 275 2.0 7.0 0.00 0.00 0.00 30 1015.6
20260506234805 63 312 2.0 8.0 0.00 0.00 0.00 31 1015.7
20260506234305 63 319 3.0 8.0 0.00 0.00 0.00 31 1015.7
20260506233805 63 298 3.0 8.0 0.00 0.00 0.00 30 1015.7
20260506233305 63 291 3.0 9.0 0.00 0.00 0.00 31 1015.7
20260506232806 63 309 3.0 9.0 0.00 0.00 0.00 32 1015.7
20260506232306 63 344 3.0 6.0 0.00 0.00 0.00 32 1015.7
20260506231803 63 348 2.0 8.0 0.00 0.00 0.00 31 1015.9
20260506231303 64 9 3.0 8.0 0.00 0.00 0.00 29 1015.9
20260506230803 64 286 3.0 9.0 0.00 0.00 0.00 30 1015.9
20260506225301 64 305 3.0 9.0 0.00 0.00 0.00 31 1015.9
20260506224801 64 279 4.0 8.0 0.00 0.00 0.00 31 1016.0
20260506223800 64 281 5.0 10.0 0.00 0.00 0.00 28 1016.0
20260506223300 64 321 2.0 10.0 0.00 0.00 0.00 32 1016.2
20260506222801 64 340 3.0 11.0 0.00 0.00 0.00 30 1016.2
20260506222259 64 244 6.0 11.0 0.00 0.00 0.00 29 1016.2
20260506221759 64 331 3.0 8.0 0.00 0.00 0.00 29 1016.3
20260506221258 64 279 3.0 10.0 0.00 0.00 0.00 29 1016.5
20260506220759 64 300 5.0 10.0 0.00 0.00 0.00 31 1016.5
20260506220258 64 317 4.0 12.0 0.00 0.00 0.00 34 1016.5
20260506215757 64 300 5.0 12.0 0.00 0.00 0.00 29 1016.5
20260506215257 65 309 4.0 10.0 0.00 0.00 0.00 30 1016.6
20260506214257 63 304 4.0 14.0 0.00 0.00 0.00 32 1016.7
20260506213755 63 316 5.0 14.0 0.00 0.00 0.00 33 1016.7
20260506213254 63 312 4.0 11.0 0.00 0.00 0.00 29 1016.8
20260506212755 64 305 4.0 11.0 0.00 0.00 0.00 32 1016.9
20260506212254 65 307 5.0 11.0 0.00 0.00 0.00 29 1016.8
20260506211253 64 348 6.0 14.0 0.00 0.00 0.00 31 1016.8
20260506210753 64 305 4.0 14.0 0.00 0.00 0.00 32 1017.0
20260506210251 63 297 6.0 14.0 0.00 0.00 0.00 30 1017.0
20260506205251 63 255 5.0 14.0 0.00 0.00 0.00 30 1017.2
20260506204749 63 295 3.0 14.0 0.00 0.00 0.00 29 1017.2
20260506204249 63 288 3.0 12.0 0.00 0.00 0.00 35 1017.1
20260506203748 62 319 3.0 12.0 0.00 0.00 0.00 35 1017.4
20260506203248 61 332 5.0 10.0 0.00 0.00 0.00 36 1017.4
20260506202749 61 239 6.0 14.0 0.00 0.00 0.00 31 1017.5
20260506202248 62 225 6.0 14.0 0.00 0.00 0.00 31 1017.5
20260506201747 63 301 8.0 14.0 0.00 0.00 0.00 30 1017.6
20260506201247 63 257 5.0 15.0 0.00 0.00 0.00 34 1017.6
20260506200746 62 261 9.0 15.0 0.00 0.00 0.00 32 1017.6
20260506200246 62 23 7.0 13.0 0.00 0.00 0.00 31 1017.7
20260506195746 61 265 5.0 12.0 0.00 0.00 0.00 37 1017.8
20260506195247 61 332 5.0 12.0 0.00 0.00 0.00 32 1017.8
20260506194746 61 282 5.0 17.0 0.00 0.00 0.00 35 1017.8
20260506194245 61 323 7.0 17.0 0.00 0.00 0.00 31 1017.9
20260506193745 62 282 5.0 15.0 0.00 0.00 0.00 33 1017.8
20260506193245 62 34 5.0 15.0 0.00 0.00 0.00 35 1017.8
20260506192746 62 347 5.0 15.0 0.00 0.00 0.00 35 1017.9
20260506191744 64 287 4.0 17.0 0.00 0.00 0.00 33 1017.9
20260506191244 63 323 5.0 12.0 0.00 0.00 0.00 38 1017.9
20260506190744 62 294 6.0 15.0 0.00 0.00 0.00 35 1017.9
20260506185742 62 300 4.0 12.0 0.00 0.00 0.00 37 1017.9
20260506185243 61 334 4.0 15.0 0.00 0.00 0.00 39 1018.1
20260506184742 61 265 4.0 17.0 0.00 0.00 0.00 35 1018.1
20260506184242 61 346 3.0 17.0 0.00 0.00 0.00 35 1018.1
20260506183742 62 336 5.0 15.0 0.00 0.00 0.00 33 1018.3
20260506182744 62 17 4.0 11.0 0.00 0.00 0.00 35 1018.3
20260506181742 61 309 6.0 13.0 0.00 0.00 0.00 37 1018.3
20260506181241 61 335 5.0 12.0 0.00 0.00 0.00 37 1018.4
20260506180742 60 316 4.0 11.0 0.00 0.00 0.00 37 1018.5
20260506180240 60 242 6.0 14.0 0.00 0.00 0.00 38 1018.5
20260506175239 60 309 5.0 14.0 0.00 0.00 0.00 37 1018.6
20260506174738 60 61 5.0 14.0 0.00 0.00 0.00 36 1018.7
20260506174238 60 304 7.0 14.0 0.00 0.00 0.00 37 1018.7
20260506173737 60 273 4.0 9.0 0.00 0.00 0.00 40 1018.9
20260506173238 60 332 4.0 11.0 0.00 0.00 0.00 39 1018.7
20260506172739 59 265 5.0 14.0 0.00 0.00 0.00 38 1018.8
20260506172237 59 319 9.0 14.0 0.00 0.00 0.00 40 1019.0
20260506171736 59 330 5.0 12.0 0.00 0.00 0.00 38 1019.1
20260506171236 59 287 6.0 13.0 0.00 0.00 0.00 39 1019.1
20260506170737 59 292 2.0 16.0 0.00 0.00 0.00 37 1019.2
20260506164735 59 342 4.0 13.0 0.00 0.00 0.00 40 1019.2
20260506164234 59 300 4.0 14.0 0.00 0.00 0.00 40 1019.2
20260506163734 58 302 6.0 15.0 0.00 0.00 0.00 39 1019.3
20260506163235 58 321 4.0 15.0 0.00 0.00 0.00 40 1019.2
20260506162735 58 22 5.0 14.0 0.00 0.00 0.00 38 1019.2
20260506162233 58 342 7.0 14.0 0.00 0.00 0.00 39 1019.2
20260506161733 58 269 6.0 14.0 0.00 0.00 0.00 39 1019.1
20260506161233 58 333 5.0 14.0 0.00 0.00 0.00 43 1019.2
20260506160732 58 238 5.0 10.0 0.00 0.00 0.00 41 1019.1
20260506160232 58 304 3.0 8.0 0.00 0.00 0.00 42 1019.1
20260506155731 57 317 3.0 12.0 0.00 0.00 0.00 43 1019.1
20260506155231 57 9 4.0 12.0 0.00 0.00 0.00 42 1019.1
20260506154231 57 9 4.0 9.0 0.00 0.00 0.00 47 1019.1
20260506153731 56 341 3.0 9.0 0.00 0.00 0.00 48 1019.1
20260506153231 56 316 3.0 9.0 0.00 0.00 0.00 47 1019.2
20260506152731 55 293 4.0 9.0 0.00 0.00 0.00 48 1019.2
20260506152230 55 307 3.0 7.0 0.00 0.00 0.00 46 1019.3
20260506151729 55 219 2.0 8.0 0.00 0.00 0.00 47 1019.2
20260506151229 55 272 3.0 11.0 0.00 0.00 0.00 46 1019.3
20260506150227 55 13 2.0 9.0 0.00 0.00 0.00 48 1019.2
20260506145727 55 296 2.0 8.0 0.00 0.00 0.00 51 1019.2
20260506145227 55 286 3.0 8.0 0.00 0.00 0.00 53 1019.3
20260506144228 53 341 2.0 9.0 0.00 0.00 0.00 50 1019.2
20260506143726 53 340 3.0 9.0 0.00 0.00 0.00 51 1019.4
20260506143227 53 229 2.0 8.0 0.00 0.00 0.00 47 1019.3
20260506142225 53 344 2.0 6.0 0.00 0.00 0.00 52 1019.3
20260506141725 52 304 3.0 6.0 0.00 0.00 0.00 51 1019.2
20260506140223 50 346 2.0 5.0 0.00 0.00 0.00 57 1019.1
20260506135723 49 275 2.0 4.0 0.00 0.00 0.00 61 1019.0
20260506135223 47 346 1.0 4.0 0.00 0.00 0.00 64 1019.0
20260506134723 46 20 1.0 4.0 0.00 0.00 0.00 66 1018.9
20260506134223 44 287 2.0 4.0 0.00 0.00 0.00 68 1018.9
20260506133721 43 250 2.0 4.0 0.00 0.00 0.00 72 1018.9
20260506133223 42 338 1.0 4.0 0.00 0.00 0.00 75 1018.9
20260506132722 40 221 2.0 4.0 0.00 0.00 0.00 78 1018.9
20260506132220 39 282 2.0 4.0 0.00 0.00 0.00 79 1018.8
20260506131720 38 300 1.0 5.0 0.00 0.00 0.00 79 1018.7
20260506131220 37 22 2.0 5.0 0.00 0.00 0.00 79 1018.7
20260506130720 36 319 2.0 4.0 0.00 0.00 0.00 80 1018.6
20260506125719 35 309 2.0 4.0 0.00 0.00 0.00 81 1018.7
20260506125218 35 309 2.0 4.0 0.00 0.00 0.00 81 1018.7
20260506124717 35 9 2.0 4.0 0.00 0.00 0.00 82 1018.7
20260506123719 34 339 2.0 4.0 0.00 0.00 0.00 82 1018.4
20260506123215 34 309 2.0 4.0 0.00 0.00 0.00 82 1018.5
20260506122714 34 319 1.0 2.0 0.00 0.00 0.00 82 1018.4
20260506122214 33 221 1.0 2.0 0.00 0.00 0.00 82 1018.2
20260506121715 33 17 1.0 2.0 0.00 0.00 0.00 81 1018.2
20260506121214 33 51 0.0 1.0 0.00 0.00 0.00 81 1018.0
20260506120714 33 178 0.0 1.0 0.00 0.00 0.00 81 1018.1
20260506120158 33 93 0.0 2.0 0.00 0.00 0.00 81 1017.9
20260506115658 33 9 0.0 2.0 0.00 0.00 0.00 80 1017.9
20260506115158 33 26 0.0 1.0 0.00 0.00 0.00 80 1017.7
20260506114657 33 9 0.0 1.0 0.00 0.00 0.00 80 1017.8
20260506114158 33 291 0.0 2.0 0.00 0.00 0.00 80 1017.7
20260506113656 33 221 1.0 2.0 0.00 0.00 0.00 79 1017.6
20260506113157 33 205 0.0 1.0 0.00 0.00 0.00 79 1017.5
20260506112656 33 51 0.0 1.0 0.00 0.00 0.00 78 1017.5
20260506112150 34 9 0.0 1.0 0.00 0.00 0.00 77 1017.5
20260506111150 34 51 0.0 1.0 0.00 0.00 0.00 77 1017.5
20260506110651 35 51 0.0 1.0 0.00 0.00 0.00 77 1017.5
20260506110145 35 119 0.0 1.0 0.00 0.00 0.00 76 1017.4
20260506105645 35 119 0.0 1.0 0.00 0.00 0.00 76 1017.4
20260506105145 35 178 0.0 1.0 0.00 0.00 0.00 75 1017.4
20260506104644 35 265 0.0 1.0 0.00 0.00 0.00 75 1017.4
20260506104144 36 162 0.0 1.0 0.00 0.00 0.00 74 1017.4